Atlanta, GA

4:32 PM EDT on August 28, 2016 (GMT -0400)
Fulton County-Brown

Weather History for KFTY - June, 2013

Change the Weather History Date:

Thursday, June 20, 2013

  Actual Average Record
Temperature  
Mean Temperature 75 °F 78 °F  
Max Temperature 85 °F 88 °F 93 °F (2006)
Min Temperature 65 °F 67 °F 57 °F (1999)
Cooling Degree Days 10 13  
Month to date cooling degree days 238 216  
Year to date cooling degree days 401 416  
Since 1 June cooling degree days 238 216  
Growing Degree Days 24 (Base 50)    
Moisture  
Dew Point 64 °F    
Average Humidity 69    
Maximum Humidity 93    
Minimum Humidity 44    
Precipitation  
Precipitation 0.00 in 0.14 in 2.04 in (1972)
Month to date precipitation 5.24 2.42  
Year to date precipitation 15.49 23.91  
Sea Level Pressure  
Sea Level Pressure 30.13 in    
Wind  
Wind Speed 5 mph (ENE)    
Max Wind Speed 14 mph    
Max Gust Speed 18 mph    
Visibility 9 miles    
Events      
T = Trace of Precipitation, MM = Missing Value Source: NWS Daily Summary

Daily Weather History Graph

Daily Weather History Graph

Search for Another Location

Airport or City:

Trip Planner

Search our weather history database for the weather conditions in past years. The results will help you decide how hot, cold, wet, or windy it might be!

Date:

Astronomy

Jun. 20, 2013 Rise Set
Actual Time 6:27 AM EDT 8:51 PM EDT
Civil Twilight 5:58 AM EDT 9:20 PM EDT
Nautical Twilight 5:22 AM EDT 9:56 PM EDT
Astronomical Twilight 4:43 AM EDT 10:35 PM EDT
Moon 5:57 PM EDT (6/20) 3:47 AM EDT (6/20)
Length of Visible Light 15h 22m
Length of Day
14h 24m
Waxing Gibbous, 89% of the Moon is Illuminated
Jun 20
Waxing Gibbous
Jun 23
Full
Jun 30
Last Quarter
Jul 8
New
Jul 15
First Quarter

Hourly Weather History & Observations

Time (EDT) Temp. Heat Index Dew Point Humidity Pressure Visibility Wind Dir Wind Speed Gust Speed Precip Events Conditions
12:53 AM 68.0 °F - 66.0 °F 93% 30.07 in 10.0 mi Calm Calm - N/A   Clear
1:53 AM 68.0 °F - 66.0 °F 93% 30.07 in 10.0 mi Calm Calm - N/A   Clear
2:53 AM 66.9 °F - 64.9 °F 93% 30.08 in 9.0 mi Calm Calm - N/A   Clear
3:53 AM 66.9 °F - 64.9 °F 93% 30.08 in 6.0 mi Calm Calm - N/A   Clear
4:53 AM 66.0 °F - 64.0 °F 93% 30.09 in 7.0 mi Calm Calm - N/A   Clear
5:53 AM 66.0 °F - 64.9 °F 96% 30.11 in 7.0 mi Calm Calm - N/A   Clear
6:53 AM 64.9 °F - 63.0 °F 93% 30.13 in 6.0 mi Calm Calm - N/A   Clear
7:53 AM 70.0 °F - 66.9 °F 90% 30.14 in 5.0 mi NNE 3.5 mph - N/A   Clear
8:53 AM 73.0 °F - 66.9 °F 81% 30.16 in 10.0 mi ENE 5.8 mph - N/A   Clear
9:53 AM 77.0 °F - 66.0 °F 69% 30.17 in 10.0 mi ENE 11.5 mph - N/A   Partly Cloudy
10:15 AM 77.0 °F - 66.2 °F 69% 30.19 in 10.0 mi East 8.1 mph - N/A   Mostly Cloudy
10:53 AM 78.1 °F - 64.9 °F 64% 30.17 in 10.0 mi East 11.5 mph 18.4 mph N/A   Mostly Cloudy
11:53 AM 80.1 °F 81.9 °F 64.9 °F 60% 30.17 in 10.0 mi ENE 8.1 mph - N/A   Mostly Cloudy
12:53 PM 82.0 °F 83.8 °F 64.9 °F 56% 30.18 in 10.0 mi ENE 11.5 mph 17.3 mph N/A   Scattered Clouds
1:53 PM 82.0 °F 83.4 °F 64.0 °F 54% 30.17 in 10.0 mi ENE 9.2 mph - N/A   Scattered Clouds
2:53 PM 84.0 °F 84.9 °F 63.0 °F 49% 30.14 in 10.0 mi East 10.4 mph - N/A   Clear
3:53 PM 84.9 °F 85.0 °F 61.0 °F 44% 30.14 in 10.0 mi East 10.4 mph - N/A   Partly Cloudy
4:53 PM 84.9 °F 84.8 °F 60.1 °F 43% 30.13 in 10.0 mi ENE 9.2 mph - N/A   Partly Cloudy
5:53 PM 84.0 °F 84.4 °F 61.0 °F 46% 30.12 in 10.0 mi East 6.9 mph - N/A   Clear
6:53 PM 82.9 °F 83.7 °F 62.1 °F 49% 30.11 in 10.0 mi ESE 6.9 mph - N/A   Partly Cloudy
7:53 PM 82.0 °F 82.7 °F 61.0 °F 49% 30.12 in 10.0 mi East 5.8 mph - N/A   Clear
8:53 PM 79.0 °F - 63.0 °F 58% 30.13 in 10.0 mi East 3.5 mph - N/A   Clear
9:53 PM 78.1 °F - 63.0 °F 60% 30.14 in 10.0 mi Calm Calm - N/A   Clear
10:53 PM 71.1 °F - 64.9 °F 81% 30.17 in 10.0 mi Calm Calm - N/A   Clear
11:53 PM 70.0 °F - 64.0 °F 81% 30.18 in 10.0 mi Calm Calm - N/A   Clear